TimeEST,TemperatureF,Dew PointF,Humidity,Sea Level PressureIn,VisibilityMPH,Wind Direction,Wind SpeedMPH,Gust SpeedMPH,PrecipitationIn,Events,Conditions,WindDirDegrees,DateUTC
12:15 AM,53.6,50.0,88,30.41,7.0,Calm,Calm,-,N/A,,Clear,0,2013-01-10 05:15:00
12:35 AM,53.6,46.4,77,30.41,7.0,Calm,Calm,-,N/A,,Clear,0,2013-01-10 05:35:00
12:55 AM,51.8,44.6,76,30.41,7.0,Calm,Calm,-,N/A,,Clear,0,2013-01-10 05:55:00
1:15 AM,51.8,42.8,71,30.41,7.0,Calm,Calm,-,N/A,,Clear,0,2013-01-10 06:15:00
1:35 AM,51.8,37.4,58,30.42,7.0,North,5.8,-,N/A,,Clear,360,2013-01-10 06:35:00
1:55 AM,53.6,44.6,72,30.42,7.0,Calm,Calm,-,N/A,,Scattered Clouds,0,2013-01-10 06:55:00
3:15 AM,51.8,46.4,82,30.42,5.0,Calm,Calm,-,N/A,,Clear,0,2013-01-10 08:15:00
3:35 AM,51.8,44.6,76,30.42,5.0,Calm,Calm,-,N/A,,Clear,0,2013-01-10 08:35:00
3:55 AM,51.8,46.4,82,30.41,7.0,Calm,Calm,-,N/A,,Clear,0,2013-01-10 08:55:00
4:15 AM,51.8,44.6,76,30.41,5.0,Calm,Calm,-,N/A,,Clear,0,2013-01-10 09:15:00
4:35 AM,51.8,46.4,82,30.41,7.0,Calm,Calm,-,N/A,,Clear,0,2013-01-10 09:35:00
4:55 AM,51.8,46.4,82,30.41,7.0,Calm,Calm,-,N/A,,Clear,0,2013-01-10 09:55:00
5:15 AM,51.8,44.6,76,30.40,7.0,Calm,Calm,-,N/A,,Clear,0,2013-01-10 10:15:00
5:35 AM,51.8,46.4,82,30.41,7.0,Calm,Calm,-,N/A,,Clear,0,2013-01-10 10:35:00
5:55 AM,51.8,46.4,82,30.41,7.0,Calm,Calm,-,N/A,,Clear,0,2013-01-10 10:55:00
6:35 AM,51.8,46.4,82,30.42,7.0,Calm,Calm,-,N/A,,Clear,0,2013-01-10 11:35:00
6:55 AM,53.6,48.2,82,30.43,7.0,Calm,Calm,-,N/A,,Clear,0,2013-01-10 11:55:00
7:15 AM,53.6,50.0,88,30.44,10.0,NNE,3.5,-,N/A,,Clear,20,2013-01-10 12:15:00
7:35 AM,55.4,50.0,82,30.45,10.0,Calm,Calm,-,N/A,,Clear,0,2013-01-10 12:35:00
7:55 AM,55.4,51.8,88,30.45,10.0,NE,3.5,-,N/A,,Clear,40,2013-01-10 12:55:00
8:35 AM,57.2,51.8,82,30.46,10.0,NE,3.5,-,N/A,,Clear,40,2013-01-10 13:35:00
8:55 AM,59.0,51.8,77,30.46,10.0,NE,5.8,-,N/A,,Clear,40,2013-01-10 13:55:00
9:15 AM,60.8,51.8,72,30.46,10.0,NE,3.5,-,N/A,,Clear,40,2013-01-10 14:15:00
9:35 AM,60.8,50.0,68,30.47,10.0,NE,3.5,-,N/A,,Clear,40,2013-01-10 14:35:00
9:55 AM,62.6,50.0,63,30.47,10.0,NE,3.5,-,N/A,,Clear,40,2013-01-10 14:55:00
10:15 AM,64.4,46.4,52,30.46,10.0,NE,5.8,-,N/A,,Clear,40,2013-01-10 15:15:00
10:35 AM,68.0,50.0,52,30.45,10.0,NE,6.9,-,N/A,,Clear,40,2013-01-10 15:35:00
10:55 AM,69.8,48.2,46,30.45,10.0,NE,6.9,-,N/A,,Clear,50,2013-01-10 15:55:00
11:15 AM,71.6,48.2,43,30.44,10.0,NE,6.9,-,N/A,,Clear,50,2013-01-10 16:15:00
11:35 AM,71.6,51.8,50,30.43,10.0,ENE,6.9,-,N/A,,Clear,60,2013-01-10 16:35:00
11:55 AM,73.4,51.8,47,30.41,10.0,ENE,9.2,-,N/A,,Clear,60,2013-01-10 16:55:00
12:15 PM,73.4,44.6,36,30.41,10.0,East,6.9,-,N/A,,Clear,100,2013-01-10 17:15:00
1:15 PM,73.4,8.6,8,30.39,10.0,East,9.2,-,N/A,,Overcast,80,2013-01-10 18:15:00
1:35 PM,73.4,30.2,20,30.39,10.0,East,4.6,-,N/A,,Overcast,100,2013-01-10 18:35:00
1:55 PM,73.4,19.4,13,30.39,10.0,ENE,5.8,-,N/A,,Overcast,70,2013-01-10 18:55:00
2:15 PM,73.4,46.4,38,30.39,10.0,Calm,Calm,-,N/A,,Overcast,0,2013-01-10 19:15:00
2:35 PM,73.4,5.0,7,30.39,10.0,East,5.8,-,N/A,,Overcast,80,2013-01-10 19:35:00
2:55 PM,71.6,12.2,10,30.39,10.0,East,3.5,-,N/A,,Overcast,80,2013-01-10 19:55:00
3:15 PM,75.2,15.8,11,30.38,10.0,East,4.6,-,N/A,,Overcast,80,2013-01-10 20:15:00
3:35 PM,73.4,12.2,10,30.38,10.0,East,3.5,-,N/A,,Overcast,100,2013-01-10 20:35:00
3:55 PM,73.4,17.6,12,30.38,10.0,ESE,5.8,-,N/A,,Overcast,120,2013-01-10 20:55:00
4:15 PM,73.4,23.0,15,30.39,10.0,SE,9.2,-,N/A,,Overcast,130,2013-01-10 21:15:00
4:35 PM,71.6,19.4,14,30.39,10.0,East,5.8,-,N/A,,Mostly Cloudy,100,2013-01-10 21:35:00
4:55 PM,69.8,17.6,14,30.39,10.0,ESE,6.9,-,N/A,,Mostly Cloudy,110,2013-01-10 21:55:00
5:15 PM,69.8,12.2,11,30.39,10.0,ESE,3.5,-,N/A,,Overcast,110,2013-01-10 22:15:00
5:35 PM,68.0,10.4,11,30.40,10.0,ESE,5.8,-,N/A,,Overcast,110,2013-01-10 22:35:00
5:55 PM,68.0,12.2,12,30.40,10.0,ESE,5.8,-,N/A,,Overcast,110,2013-01-10 22:55:00
6:15 PM,64.4,15.8,15,30.41,10.0,Calm,Calm,-,N/A,,Overcast,0,2013-01-10 23:15:00
6:35 PM,64.4,15.8,15,30.41,10.0,East,6.9,-,N/A,,Overcast,80,2013-01-10 23:35:00
6:55 PM,64.4,23.0,21,30.41,10.0,East,3.5,-,N/A,,Overcast,80,2013-01-10 23:55:00
7:15 PM,62.6,37.4,39,30.41,7.0,East,4.6,-,N/A,,Overcast,80,2013-01-11 00:15:00
7:35 PM,60.8,48.2,63,30.41,5.0,Calm,Calm,-,N/A,,Overcast,0,2013-01-11 00:35:00
7:55 PM,60.8,50.0,68,30.41,5.0,Calm,Calm,-,0.01,,Overcast,0,2013-01-11 00:55:00
8:15 PM,60.8,41.0,48,30.40,4.0,Calm,Calm,-,0.02,,Overcast,0,2013-01-11 01:15:00
8:35 PM,59.0,48.2,67,30.40,4.0,Calm,Calm,-,0.03,,Overcast,0,2013-01-11 01:35:00
8:55 PM,59.0,46.4,63,30.40,5.0,Calm,Calm,-,0.04,,Overcast,0,2013-01-11 01:55:00
9:15 PM,59.0,53.6,82,30.40,5.0,Calm,Calm,-,N/A,,Overcast,0,2013-01-11 02:15:00
9:35 PM,59.0,48.2,67,30.39,3.0,East,3.5,-,0.01,,Overcast,80,2013-01-11 02:35:00
9:55 PM,59.0,46.4,63,30.39,4.0,Calm,Calm,-,0.02,,Overcast,0,2013-01-11 02:55:00
10:15 PM,59.0,50.0,72,30.38,10.0,East,4.6,-,N/A,,Overcast,90,2013-01-11 03:15:00
10:35 PM,59.0,50.0,72,30.38,10.0,East,3.5,-,N/A,,Overcast,90,2013-01-11 03:35:00
10:55 PM,59.0,50.0,72,30.39,10.0,East,4.6,-,N/A,,Overcast,100,2013-01-11 03:55:00
11:15 PM,59.0,50.0,72,30.38,10.0,East,5.8,-,N/A,,Overcast,100,2013-01-11 04:15:00
11:35 PM,57.2,50.0,77,30.38,10.0,ESE,3.5,-,N/A,,Overcast,110,2013-01-11 04:35:00
11:55 PM,57.2,50.0,77,30.37,7.0,Calm,Calm,-,N/A,,Overcast,0,2013-01-11 04:55:00